PGT44NP LTFJ-LTBS

Flight info

Callsign PGT44NP
Flight time 0h 55m
Altitude 38000
Route ROXUK UT409 NUMTI UT241 DEN/N0434F370 UW87 LAVTA/N0381F270 W87 ATSAL
Aircraft A320/M-SDFGHIJ1LORVWYLB1/HB1

Departure

Time 2026-04-23 20:05
Airport Istanbul Sabiha Gökçen International Airport (LTFJ)

Arrival

Time 2026-04-23 21:00
Airport Dalaman International Airport (LTBS)
Time Latitude Longitude Altitude Speed Heading
2026-04-23 19:11 40.90748 29.31940 311 ft 0 kts 334°
2026-04-23 19:51 40.90746 29.31941 311 ft 2 kts 334°
2026-04-23 19:51 40.90723 29.31956 310 ft 4 kts 332°
2026-04-23 19:51 40.90699 29.31973 310 ft 4 kts 328°
2026-04-23 19:52 40.90677 29.31994 310 ft 4 kts 313°
2026-04-23 19:52 40.90665 29.32020 310 ft 4 kts 257°
2026-04-23 19:52 40.90666 29.32026 311 ft 0 kts 244°
2026-04-23 19:55 40.90666 29.32025 311 ft 2 kts 244°
2026-04-23 19:55 40.90641 29.31957 311 ft 6 kts 244°
2026-04-23 19:56 40.90617 29.31919 311 ft 4 kts 203°
2026-04-23 19:56 40.90589 29.31932 311 ft 6 kts 154°
2026-04-23 19:56 40.90525 29.31972 311 ft 14 kts 154°
2026-04-23 19:56 40.90437 29.31931 311 ft 19 kts 249°
2026-04-23 19:57 40.90369 29.31746 311 ft 24 kts 244°
2026-04-23 19:57 40.90293 29.31539 310 ft 26 kts 244°
2026-04-23 19:57 40.90212 29.31319 311 ft 27 kts 244°
2026-04-23 19:57 40.90127 29.31088 311 ft 28 kts 244°
2026-04-23 19:58 40.90040 29.30851 311 ft 28 kts 244°
2026-04-23 19:58 40.89954 29.30618 311 ft 29 kts 244°
2026-04-23 19:58 40.89865 29.30376 310 ft 30 kts 244°
2026-04-23 19:58 40.89772 29.30123 309 ft 31 kts 244°
2026-04-23 19:59 40.89675 29.29861 307 ft 32 kts 244°
2026-04-23 19:59 40.89582 29.29614 304 ft 24 kts 244°
2026-04-23 19:59 40.89525 29.29453 302 ft 19 kts 244°
2026-04-23 19:59 40.89473 29.29313 303 ft 14 kts 244°
2026-04-23 20:00 40.89452 29.29267 302 ft 0 kts 235°
2026-04-23 20:03 40.89398 29.29255 303 ft 19 kts 163°
2026-04-23 20:03 40.89281 29.29369 302 ft 16 kts 95°
2026-04-23 20:03 40.89313 29.29439 303 ft 7 kts 63°
2026-04-23 20:04 40.89349 29.29548 307 ft 23 kts 68°
2026-04-23 20:04 40.89419 29.29742 308 ft 26 kts 64°
2026-04-23 20:04 40.89610 29.30259 311 ft 100 kts 64°
2026-04-23 20:04 40.90007 29.31335 315 ft 158 kts 63°
2026-04-23 20:05 40.90336 29.32234 645 ft 163 kts 64°
2026-04-23 20:05 40.91009 29.33977 1809 ft 157 kts 64°
2026-04-23 20:05 40.91503 29.35285 2428 ft 167 kts 65°
2026-04-23 20:05 40.92037 29.36756 2830 ft 189 kts 64°
2026-04-23 20:06 40.92641 29.38425 3217 ft 214 kts 64°
2026-04-23 20:06 40.93299 29.40314 3714 ft 239 kts 70°
2026-04-23 20:06 40.93332 29.42556 4434 ft 258 kts 106°
2026-04-23 20:06 40.92294 29.44557 5170 ft 276 kts 141°
2026-04-23 20:07 40.90611 29.45834 6102 ft 283 kts 157°
2026-04-23 20:07 40.88746 29.46767 6759 ft 289 kts 161°
2026-04-23 20:07 40.86839 29.47631 6954 ft 289 kts 161°
2026-04-23 20:07 40.84943 29.48549 7381 ft 291 kts 159°
2026-04-23 20:08 40.83069 29.49554 8467 ft 291 kts 158°
2026-04-23 20:08 40.81209 29.50631 9493 ft 293 kts 157°
2026-04-23 20:08 40.79345 29.51770 10314 ft 303 kts 156°
2026-04-23 20:08 40.77459 29.53245 10678 ft 327 kts 144°
2026-04-23 20:09 40.75774 29.55340 11362 ft 338 kts 131°
2026-04-23 20:09 40.74344 29.57829 12166 ft 344 kts 127°
2026-04-23 20:09 40.72904 29.60376 12986 ft 349 kts 128°
2026-04-23 20:09 40.71432 29.62949 13801 ft 354 kts 128°
2026-04-23 20:10 40.70366 29.64579 14265 ft 356 kts 136°
2026-04-23 20:10 40.68415 29.66595 15004 ft 357 kts 150°
2026-04-23 20:10 40.66161 29.67974 15744 ft 359 kts 163°
2026-04-23 20:10 40.62899 29.68725 16701 ft 362 kts 180°
2026-04-23 20:11 40.60367 29.68728 17411 ft 366 kts 180°
2026-04-23 20:11 40.57814 29.68719 18194 ft 367 kts 181°
2026-04-23 20:11 40.55248 29.68711 18834 ft 370 kts 181°
2026-04-23 20:11 40.52658 29.68706 19424 ft 375 kts 180°
2026-04-23 20:12 40.50891 29.68702 19822 ft 377 kts 180°
2026-04-23 20:12 40.48248 29.68698 20402 ft 381 kts 180°
2026-04-23 20:12 40.45615 29.68691 20963 ft 386 kts 180°
2026-04-23 20:12 40.42921 29.68682 21521 ft 390 kts 179°
2026-04-23 20:13 40.40191 29.68670 22069 ft 394 kts 181°
2026-04-23 20:13 40.37448 29.68660 22703 ft 395 kts 181°
2026-04-23 20:13 40.34686 29.68653 23291 ft 399 kts 181°
2026-04-23 20:13 40.31896 29.68648 23774 ft 403 kts 181°
2026-04-23 20:14 40.29085 29.68641 24231 ft 406 kts 181°
2026-04-23 20:14 40.26258 29.68632 24699 ft 408 kts 181°
2026-04-23 20:14 40.23409 29.68624 25172 ft 410 kts 181°
2026-04-23 20:14 40.20552 29.68620 25648 ft 411 kts 184°
2026-04-23 20:15 40.17690 29.68628 26214 ft 411 kts 182°
2026-04-23 20:15 40.14827 29.68912 26702 ft 414 kts 179°
2026-04-23 20:15 40.11948 29.69242 27159 ft 416 kts 179°
2026-04-23 20:15 40.09054 29.69576 27604 ft 418 kts 179°
2026-04-23 20:16 40.06144 29.69912 28047 ft 421 kts 179°
2026-04-23 20:16 40.03221 29.70246 28476 ft 423 kts 179°
2026-04-23 20:16 40.00280 29.70580 28917 ft 425 kts 181°
2026-04-23 20:16 39.97333 29.70912 29412 ft 425 kts 181°
2026-04-23 20:17 39.94376 29.71230 29868 ft 426 kts 184°
2026-04-23 20:17 39.91438 29.71138 30233 ft 420 kts 193°
2026-04-23 20:17 39.88585 29.70448 30540 ft 415 kts 201°
2026-04-23 20:17 39.85878 29.69200 30847 ft 411 kts 210°
2026-04-23 20:18 39.83367 29.67437 31157 ft 409 kts 216°
2026-04-23 20:18 39.80929 29.65522 31554 ft 408 kts 216°
2026-04-23 20:18 39.78500 29.63622 32002 ft 407 kts 216°
2026-04-23 20:18 39.76076 29.61731 32460 ft 405 kts 216°
2026-04-23 20:19 39.73656 29.59844 32869 ft 405 kts 216°
2026-04-23 20:19 39.71243 29.57962 33249 ft 405 kts 216°
2026-04-23 20:19 39.68856 29.56102 33622 ft 405 kts 216°
2026-04-23 20:19 39.66435 29.54219 33983 ft 405 kts 216°
2026-04-23 20:20 39.63985 29.52316 34344 ft 405 kts 216°
2026-04-23 20:20 39.61634 29.50390 34605 ft 406 kts 218°
2026-04-23 20:20 39.59291 29.48345 34878 ft 406 kts 219°
2026-04-23 20:20 39.56969 29.46249 35149 ft 407 kts 219°
2026-04-23 20:21 39.54650 29.44140 35424 ft 408 kts 219°
2026-04-23 20:21 39.52317 29.42034 35666 ft 409 kts 219°
2026-04-23 20:21 39.49967 29.39940 35923 ft 409 kts 219°
2026-04-23 20:21 39.47619 29.37867 36256 ft 408 kts 218°
2026-04-23 20:22 39.45262 29.35799 36524 ft 409 kts 218°
2026-04-23 20:22 39.42904 29.33740 36756 ft 410 kts 218°
2026-04-23 20:22 39.40541 29.31680 37009 ft 410 kts 218°
2026-04-23 20:22 39.38174 29.29619 37278 ft 410 kts 218°
2026-04-23 20:23 39.35810 29.27558 37549 ft 410 kts 218°
2026-04-23 20:23 39.33441 29.25491 37802 ft 410 kts 218°
2026-04-23 20:23 39.31071 29.23422 37993 ft 412 kts 218°
2026-04-23 20:24 39.26320 29.19274 38014 ft 412 kts 218°
2026-04-23 20:24 39.21596 29.15157 38008 ft 412 kts 218°
2026-04-23 20:25 39.16845 29.11027 38000 ft 410 kts 218°
2026-04-23 20:25 39.12120 29.06927 38004 ft 409 kts 218°
2026-04-23 20:26 39.07406 29.02836 38005 ft 409 kts 218°
2026-04-23 20:26 39.02683 28.98748 38003 ft 409 kts 218°
2026-04-23 20:27 38.97952 28.94665 38001 ft 410 kts 218°
2026-04-23 20:27 38.93209 28.90574 37791 ft 412 kts 218°
2026-04-23 20:27 38.90826 28.88521 37519 ft 412 kts 218°
2026-04-23 20:28 38.88451 28.86480 37254 ft 411 kts 218°
2026-04-23 20:28 38.86073 28.84441 36961 ft 410 kts 218°
2026-04-23 20:28 38.83743 28.82446 36704 ft 406 kts 218°
2026-04-23 20:28 38.81403 28.80440 36449 ft 404 kts 218°
2026-04-23 20:29 38.79068 28.78437 36194 ft 402 kts 218°
2026-04-23 20:29 38.76738 28.76440 35938 ft 401 kts 219°
2026-04-23 20:29 38.74426 28.74458 35691 ft 400 kts 218°
2026-04-23 20:29 38.72121 28.72487 35437 ft 397 kts 218°
2026-04-23 20:30 38.69837 28.70539 35194 ft 393 kts 219°
2026-04-23 20:30 38.65345 28.66706 34693 ft 383 kts 219°
2026-04-23 20:30 38.63129 28.64817 34471 ft 382 kts 219°
2026-04-23 20:31 38.60880 28.63011 34239 ft 384 kts 213°
2026-04-23 20:31 38.58439 28.61686 34006 ft 389 kts 204°
2026-04-23 20:31 38.55781 28.60932 33730 ft 396 kts 194°
2026-04-23 20:31 38.53001 28.60828 33453 ft 404 kts 184°
2026-04-23 20:32 38.50199 28.61165 33147 ft 403 kts 184°
2026-04-23 20:32 38.47414 28.61508 32872 ft 400 kts 184°
2026-04-23 20:32 38.44652 28.61841 32615 ft 398 kts 184°
2026-04-23 20:32 38.41898 28.62168 32351 ft 396 kts 184°
2026-04-23 20:33 38.39157 28.62490 32091 ft 394 kts 184°
2026-04-23 20:33 38.36427 28.62811 31832 ft 392 kts 184°
2026-04-23 20:33 38.33715 28.63130 31574 ft 391 kts 184°
2026-04-23 20:33 38.31010 28.63448 31320 ft 389 kts 184°
2026-04-23 20:34 38.28321 28.63766 31053 ft 387 kts 184°
2026-04-23 20:34 38.25681 28.64077 30806 ft 385 kts 184°
2026-04-23 20:34 38.23021 28.64389 30559 ft 384 kts 184°
2026-04-23 20:34 38.20364 28.64699 30318 ft 382 kts 184°
2026-04-23 20:35 38.17717 28.65007 30063 ft 381 kts 184°
2026-04-23 20:35 38.15082 28.65312 29781 ft 380 kts 184°
2026-04-23 20:35 38.12458 28.65618 29514 ft 378 kts 184°
2026-04-23 20:35 38.09841 28.65928 29221 ft 377 kts 184°
2026-04-23 20:36 38.07232 28.66239 28903 ft 376 kts 184°
2026-04-23 20:36 38.04625 28.66547 28612 ft 376 kts 184°
2026-04-23 20:36 38.02026 28.66855 28340 ft 375 kts 184°
2026-04-23 20:36 37.99433 28.67163 28061 ft 374 kts 184°
2026-04-23 20:37 37.96846 28.67467 27781 ft 373 kts 183°
2026-04-23 20:37 37.94276 28.67767 27520 ft 370 kts 183°
2026-04-23 20:37 37.91730 28.68063 27097 ft 365 kts 183°
2026-04-23 20:37 37.89215 28.68355 26617 ft 362 kts 183°
2026-04-23 20:38 37.86716 28.68642 26126 ft 359 kts 183°
2026-04-23 20:38 37.84274 28.68923 25672 ft 357 kts 183°
2026-04-23 20:38 37.81805 28.69209 25177 ft 356 kts 182°
2026-04-23 20:38 37.79341 28.69496 24679 ft 355 kts 182°
2026-04-23 20:39 37.76878 28.69785 24159 ft 355 kts 182°
2026-04-23 20:39 37.74419 28.70072 23662 ft 355 kts 182°
2026-04-23 20:39 37.71962 28.70357 23131 ft 353 kts 182°
2026-04-23 20:39 37.69524 28.70594 22658 ft 349 kts 183°
2026-04-23 20:40 37.67116 28.70774 22196 ft 346 kts 184°
2026-04-23 20:40 37.64719 28.70927 21727 ft 343 kts 184°
2026-04-23 20:40 37.62346 28.71071 21287 ft 340 kts 184°
2026-04-23 20:40 37.59995 28.71214 20837 ft 338 kts 184°
2026-04-23 20:41 37.57649 28.71363 20401 ft 337 kts 184°
2026-04-23 20:41 37.55315 28.71518 19947 ft 336 kts 184°
2026-04-23 20:41 37.52989 28.71678 19522 ft 334 kts 183°
2026-04-23 20:41 37.50673 28.71842 19094 ft 332 kts 183°
2026-04-23 20:42 37.48371 28.71989 18717 ft 329 kts 184°
2026-04-23 20:42 37.46125 28.72083 18385 ft 324 kts 185°
2026-04-23 20:42 37.43881 28.72148 18014 ft 320 kts 185°
2026-04-23 20:42 37.41669 28.72200 17685 ft 316 kts 185°
2026-04-23 20:43 37.39474 28.72255 17357 ft 314 kts 185°
2026-04-23 20:43 37.37295 28.72318 17027 ft 313 kts 185°
2026-04-23 20:43 37.35126 28.72383 16709 ft 311 kts 185°
2026-04-23 20:43 37.32961 28.72450 16378 ft 310 kts 184°
2026-04-23 20:44 37.30810 28.72518 16046 ft 309 kts 184°
2026-04-23 20:44 37.28665 28.72586 15747 ft 308 kts 184°
2026-04-23 20:44 37.26525 28.72653 15427 ft 307 kts 184°
2026-04-23 20:44 37.24396 28.72719 15110 ft 306 kts 184°
2026-04-23 20:45 37.22273 28.72786 14783 ft 305 kts 184°
2026-04-23 20:45 37.20156 28.72851 14523 ft 305 kts 184°
2026-04-23 20:45 37.18064 28.72916 14216 ft 304 kts 184°
2026-04-23 20:45 37.15923 28.72985 13909 ft 303 kts 183°
2026-04-23 20:46 37.13844 28.73055 13580 ft 302 kts 183°
2026-04-23 20:46 37.11750 28.73128 13262 ft 301 kts 183°
2026-04-23 20:46 37.09660 28.73199 12952 ft 300 kts 183°
2026-04-23 20:46 37.07583 28.73268 12637 ft 298 kts 183°
2026-04-23 20:47 37.05524 28.73292 12330 ft 293 kts 186°
2026-04-23 20:47 37.03497 28.73188 12026 ft 290 kts 188°
2026-04-23 20:47 37.01492 28.73024 11735 ft 289 kts 188°
2026-04-23 20:47 36.99490 28.72845 11425 ft 287 kts 188°
2026-04-23 20:48 36.97498 28.72672 11132 ft 287 kts 188°
2026-04-23 20:48 36.95511 28.72509 10836 ft 285 kts 188°
2026-04-23 20:48 36.93531 28.72354 10542 ft 284 kts 188°
2026-04-23 20:48 36.91560 28.72204 10246 ft 283 kts 187°
2026-04-23 20:49 36.89606 28.71981 9954 ft 280 kts 195°
2026-04-23 20:49 36.87728 28.71408 9654 ft 278 kts 198°
2026-04-23 20:49 36.85855 28.70821 9344 ft 277 kts 197°
2026-04-23 20:49 36.83986 28.70237 9068 ft 276 kts 197°
2026-04-23 20:50 36.82124 28.69654 8782 ft 275 kts 197°
2026-04-23 20:50 36.80265 28.69072 8494 ft 274 kts 198°
2026-04-23 20:50 36.78414 28.68496 8214 ft 274 kts 198°
2026-04-23 20:50 36.76573 28.67924 7928 ft 272 kts 197°
2026-04-23 20:51 36.74761 28.67360 7655 ft 271 kts 197°
2026-04-23 20:51 36.72960 28.66801 7501 ft 261 kts 197°
2026-04-23 20:51 36.71232 28.66263 7380 ft 251 kts 197°
2026-04-23 20:51 36.69574 28.65746 7172 ft 243 kts 197°
2026-04-23 20:52 36.67953 28.65235 7034 ft 239 kts 197°
2026-04-23 20:52 36.66349 28.64699 6876 ft 239 kts 198°
2026-04-23 20:52 36.64748 28.64151 6642 ft 238 kts 198°
2026-04-23 20:52 36.63154 28.63603 6393 ft 237 kts 198°
2026-04-23 20:53 36.61569 28.63061 6115 ft 237 kts 199°
2026-04-23 20:53 36.59981 28.62521 5859 ft 235 kts 198°
2026-04-23 20:53 36.58409 28.61988 5607 ft 234 kts 198°
2026-04-23 20:53 36.56836 28.61454 5309 ft 233 kts 198°
2026-04-23 20:54 36.55244 28.61089 4960 ft 235 kts 179°
2026-04-23 20:54 36.53698 28.61723 4635 ft 239 kts 146°
2026-04-23 20:54 36.52680 28.63300 4301 ft 241 kts 111°
2026-04-23 20:54 36.52294 28.65325 3922 ft 242 kts 103°
2026-04-23 20:55 36.51881 28.67358 3584 ft 242 kts 105°
2026-04-23 20:55 36.51429 28.69343 3416 ft 232 kts 105°
2026-04-23 20:55 36.51373 28.71260 3282 ft 218 kts 69°
2026-04-23 20:55 36.52251 28.72654 3150 ft 201 kts 24°
2026-04-23 20:56 36.53542 28.73187 2970 ft 194 kts 12°
2026-04-23 20:56 36.54839 28.73637 2849 ft 194 kts 13°
2026-04-23 20:56 36.56137 28.74082 2767 ft 194 kts 12°
2026-04-23 20:56 36.57439 28.74525 2593 ft 193 kts 13°
2026-04-23 20:57 36.58705 28.74956 2357 ft 183 kts 13°
2026-04-23 20:57 36.59895 28.75361 2107 ft 172 kts 14°
2026-04-23 20:57 36.61012 28.75741 1884 ft 162 kts 12°
2026-04-23 20:57 36.62069 28.76100 1674 ft 153 kts 13°
2026-04-23 20:58 36.63058 28.76437 1496 ft 143 kts 12°
2026-04-23 20:58 36.64000 28.76757 1296 ft 138 kts 12°
2026-04-23 20:58 36.64926 28.77071 1105 ft 137 kts 13°
2026-04-23 20:58 36.65842 28.77383 917 ft 135 kts 14°
2026-04-23 20:59 36.66736 28.77690 750 ft 136 kts 14°
2026-04-23 20:59 36.67641 28.77995 569 ft 134 kts 15°
2026-04-23 20:59 36.68535 28.78299 368 ft 133 kts 15°
2026-04-23 20:59 36.69419 28.78595 173 ft 130 kts 17°
2026-04-23 21:00 36.70265 28.78892 31 ft 122 kts 17°
2026-04-23 21:00 36.70995 28.79143 13 ft 89 kts 14°
2026-04-23 21:00 36.71435 28.79287 13 ft 47 kts 14°
2026-04-23 21:00 36.71730 28.79385 12 ft 41 kts 15°
2026-04-23 21:01 36.71949 28.79435 12 ft 30 kts 358°
2026-04-23 21:01 36.72078 28.79406 12 ft 9 kts 341°
2026-04-23 21:01 36.72135 28.79381 12 ft 8 kts 342°
2026-04-23 21:01 36.72186 28.79363 12 ft 8 kts 346°
2026-04-23 21:02 36.72226 28.79351 12 ft 10 kts 346°
2026-04-23 21:02 36.72294 28.79242 12 ft 16 kts 282°
2026-04-23 21:02 36.72257 28.79136 12 ft 16 kts 198°
2026-04-23 21:02 36.72151 28.79101 12 ft 16 kts 195°
2026-04-23 21:03 36.72049 28.79066 12 ft 15 kts 195°
2026-04-23 21:03 36.71991 28.79010 12 ft 10 kts 273°
2026-04-23 21:03 36.71999 28.78970 13 ft 2 kts 284°
2026-04-23 21:03 36.72000 28.78964 14 ft 0 kts 284°